Location: *
(55.6049°S, 142.1985°W)
Time: 01:01:39
(UTC+00:00)

NOSS 3-4 (C) - Pass Details

Date: 12 May 2021
Orbit: 873 x 1339 km, 63.4° (Epoch: 06 May)

Event Time Altitude Azimuth Distance (km) Brightness Sun altitude
Exits shadow 15:54:15 13° 243° (WSW) 3,013 5.4 -11.0°
Maximum altitude 16:01:05 49° 170° (S) 1,468 4.4 -10.1°
Drops below altitude 10° 16:07:50 10° 95° (E) 2,909 7.2 -9.2°
Sets 16:10:27 0° 89° (E) 3,794 8.2 -8.9°
